Home > Weather > A Coruña > Past weeks

Flag for Spain Past Weather in A Coruña, Spain — Yesterday and Last 2 Weeks

Now
71 °F

Passing clouds.


Feels Like: 75 °F
Forecast: 62 / 75 °F
Wind: 12 mph from North

Location: La Coruna

Current Time: Jul 23, 2016 at 3:21:12 PM

Latest Report: Jul 23, 2016 at 2:00 PM


Visibility: 16 mi

Pressure: 30.28 "Hg

Humidity: 68%

Dew Point: 60 °F

Location of A CoruñaLocation

Past Weather in A Coruña — Graph

°F

A Coruña Temperature Yesterday

Maximum temperature yesterday: 71 °F (at 2:00 PM)
Minimum temperature yesterday: 64 °F (at 3:00 AM)
Average temperature yesterday: 66 °F

High & Low Weather Summary for the Past Weeks

 TemperatureHumidityPressure
High86 °F (Jul 16, 3:00 PM)98% (Jul 9, 6:00 AM)30.35 "Hg (Jul 9, 6:00 AM)
Low58 °F (Jul 13, 7:00 AM)39% (Jul 15, 1:00 PM)29.90 "Hg (Jul 19, 4:00 AM)
Average68 °F76%30.14 "Hg
* Reported Jul 8 2:00 PM — Jul 23 2:00 PM, A Coruña, Weather by CustomWeather, © 2016

Note: Actual official high and low records may vary slightly from our data, if they occured in-between our weather recording intervals... More about our weather records

Advertising

A Coruña Weather History for the Previous 24 Hours

Scroll right to see more
 ConditionsComfort  
Time TempWeatherWind HumidityBarometerVisibility
2:00 PM
Sat, Jul 23
71 °FPassing clouds.12 mph68%30.28 "Hg16 mi
1:00 PM70 °FMild.9 mph67%30.29 "Hg12 mi
12:00 PM69 °FMild.13 mph71%30.29 "Hg12 mi
11:00 AM70 °FPassing clouds.6 mph69%30.29 "Hg12 mi
10:00 AM67 °FMild.7 mph73%30.28 "Hg12 mi
9:00 AM64 °FMild.5 mph80%30.29 "Hg12 mi
8:00 AM63 °FMild.7 mph81%30.28 "Hg12 mi
7:00 AM62 °FCool.5 mph82%30.27 "Hg12 mi
6:00 AM63 °FMild.8 mph80%30.26 "Hg12 mi
5:00 AM63 °FPassing clouds.8 mph79%30.27 "Hg11 mi
4:00 AM63 °FMild.12 mph85%30.27 "Hg10 mi
3:00 AM63 °FMild.10 mph90%30.28 "Hg9 mi
2:00 AM64 °FPassing clouds.9 mph92%30.29 "Hg11 mi
1:00 AM64 °FMild.8 mph92%30.29 "Hg7 mi
12:00 AM64 °FMild.10 mph91%30.28 "Hg8 mi
11:00 PM
Fri, Jul 22
64 °FOvercast.9 mph92%30.28 "Hg11 mi
10:00 PM65 °FMild.10 mph91%30.26 "Hg7 mi
9:00 PM65 °FMild.8 mph92%30.25 "Hg8 mi
8:00 PM65 °FMild.13 mph91%30.24 "Hg11 mi
7:00 PM66 °FMild.12 mph90%30.24 "Hg11 mi
6:00 PM67 °FMild.12 mph89%30.23 "Hg12 mi
5:00 PM68 °FMild.10 mph85%30.24 "Hg12 mi
4:00 PM70 °FMild.10 mph82%30.24 "Hg12 mi
3:00 PM71 °FMild.9 mph81%30.23 "Hg12 mi
Weather by CustomWeather, © 2016

See weather overviewHow to use our weather pages